GFSNW_2pvu_pres_144.txt.gz
Presure
165 179 152 157 187 143 178 167 178 135 138 140 150 151 167 199 175 201 176 225 228 190 201 197 233 225 220 229 248 257 272 426 416 407 404 363 348 341 333 262 254 249 243 244
176 170 172 149 175 169 159 127 186 173 152 173 140 159 192 200 198 191 185 180 199 208 217 186 191 186 212 209 219 227 230 239 237 253 263 272 335 354 356 365 353 351 343 343
161 157 166 172 165 152 169 168 146 166 167 176 163 138 139 154 188 198 188 190 194 165 191 198 191 170 173 195 218 214 212 210 209 223 220 214 224 239 249 248 257 264 271 284
182 161 169 151 161 175 143 169 168 165 184 155 167 166 160 177 143 198 168 192 160 196 177 207 213 177 216 191 204 200 192 197 211 208 209 214 215 210 205 213 221 222 223 239
166 165 160 127 171 175 167 171 128 171 157 189 163 184 179 181 173 156 167 200 183 175 151 200 181 169 143 203 168 187 214 194 187 229 203 187 160 199 168 213 208 211 221 204
172 174 174 171 176 164 173 163 170 158 151 177 178 155 175 171 187 187 154 157 184 189 165 192 181 165 200 177 191 150 175 181 175 201 193 196 184 181 187 190 187 205 201 195
173 165 172 170 151 161 170 184 172 167 182 138 179 158 186 172 174 168 152 155 138 154 195 174 176 181 189 194 200 201 207 177 185 204 198 187 189 216 192 184 191 191 201 198
179 171 181 176 165 167 174 179 171 165 139 170 157 183 183 161 168 177 144 154 147 135 145 132 168 190 152 178 197 168 197 191 194 196 206 211 190 212 186 199 217 183 181 177
183 176 173 172 182 181 183 201 154 177 191 187 185 163 170 182 177 180 169 170 138 173 172 187 163 159 188 176 183 152 193 195 201 177 203 203 201 212 182 210 197 178 192 217
135 167 166 156 170 170 141 168 156 174 173 183 180 174 185 164 184 158 183 163 175 176 183 186 172 155 198 206 172 178 194 165 166 174 189 191 216 184 197 174 207 199 187 196
165 154 206 184 171 187 173 180 181 167 141 175 188 186 140 167 150 155 183 189 179 170 180 173 151 182 192 141 196 189 189 169 196 204 182 155 166 189 224 207 186 189 180 200
162 189 196 175 172 151 196 161 161 149 177 193 179 170 186 173 188 170 184 171 171 175 186 173 167 186 169 166 138 137 182 184 186 177 178 196 214 180 197 180 207 178 167 176
169 154 194 207 171 171 137 180 180 165 176 176 179 139 154 173 184 200 169 191 192 189 192 190 187 151 168 155 182 182 180 156 163 188 197 200 207 198 200 198 152 148 177 195
163 162 169 153 159 154 177 204 173 130 168 168 163 167 175 167 179 173 172 189 169 172 185 200 152 172 182 179 189 194 182 179 167 144 188 196 172 199 202 206 202 190 200 208
224 208 181 210 193 229 210 176 174 184 157 206 193 187 209 193 168 208 185 189 190 197 192 200 182 182 176 156 179 142 154 189 196 207 200 185 191 197 203 209 206 210 212 163
220 202 268 213 210 202 245 177 211 208 167 188 171 200 175 180 169 203 174 191 189 199 192 185 181 188 185 197 163 143 176 206 120 191 195 195 206 130 203 146 91 204 153 131
238 228 235 203 255 219 217 197 225 224 174 226 222 209 179 165 206 164 184 148 190 196 230 220 203 202 215 208 188 84 144 165 183 207 169 210 101 219 106 169 223 146 217 216
244 218 221 233 215 259 230 244 253 228 210 210 201 206 229 153 87 138 217 199 204 189 227 204 191 227 196 212 82 139 148 124 232 224 219 220 209 205 216 228 222 212 231 192
257 292 255 298 246 219 236 255 231 233 221 221 209 232 230 81 84 184 226 218 217 223 192 224 237 190 149 228 217 202 212 231 234 240 237 137 134 245 253 262 222 291 216 271
240 266 250 256 256 219 322 222 234 198 335 199 254 234 206 267 250 254 212 247 213 73 232 194 222 200 188 182 252 97 134 101 93 106 105 115 281 300 378 373 255 282 259 304
290 276 281 292 291 227 250 250 218 257 250 229 288 254 236 277 225 228 227 228 247 211 240 243 228 230 159 92 84 94 94 243 243 243 248 248 265 255 249 249 219 278 354 356
291 298 275 314 296 269 240 262 225 308 259 201 232 285 212 285 298 292 248 226 222 225 254 244 233 222 143 139 84 95 206 172 236 310 254 265 320 342 352 338 351 350 344 346
291 281 291 286 271 302 264 297 293 331 283 302 299 295 281 254 258 299 278 273 340 333 294 299 284 336 88 90 92 95 90 172 271 254 316 264 247 337 332 315 286 300 154 345
290 298 300 290 298 281 282 287 293 286 294 288 292 308 307 293 286 263 195 299 356 225 346 246 284 299 297 290 271 301 301 88 250 279 278 271 296 297 287 352 354 306 352 351
290 284 288 298 292 288 288 287 283 291 277 290 298 303 308 298 292 300 318 299 239 324 315 306 315 309 324 332 366 363 349 253 323 311 314 147 316 365 360 353 351 314 347 346
307 122 306 159 296 294 290 284 281 278 204 290 285 286 290 296 303 307 174 293 293 293 291 302 305 309 299 300 297 284 277 279 341 336 350 367 214 362 350 350 353 352 348 346
300 96 366 308 317 103 111 300 284 290 295 299 297 294 301 82 290 291 311 283 296 303 303 283 290 300 321 319 289 288 314 301 287 315 366 344 333 336 200 337 331 346 337 338

GFSNW_2pvu_pres_147.txt.gz
Presure
167 164 158 164 166 177 153 182 141 168 183 159 181 152 137 154 192 178 204 182 173 187 190 180 212 219 242 235 236 236 265 356 347 340 331 323 308 300 290 273 264 250 235 237
161 168 170 169 177 181 159 168 170 178 166 165 144 172 152 188 164 196 172 149 189 174 191 181 201 184 215 221 217 223 229 226 227 234 243 258 261 393 387 387 421 409 409 411
168 161 171 145 170 156 163 153 140 148 187 133 168 162 157 163 184 167 187 184 177 172 189 172 194 176 166 192 194 220 211 207 220 228 222 216 225 219 220 220 230 231 245 241
174 153 168 171 177 172 130 146 166 163 148 166 168 149 179 143 146 183 153 164 186 166 165 181 175 202 171 162 175 178 218 208 203 205 210 205 223 220 215 210 199 213 211 210
174 167 192 182 184 171 164 171 174 149 146 175 167 187 151 168 187 147 144 195 186 164 162 151 190 196 155 208 171 169 183 172 220 203 204 214 195 232 219 195 200 213 213 203
180 166 149 164 184 173 178 133 180 184 172 150 144 188 158 164 189 183 171 148 165 176 177 159 198 184 167 193 208 197 198 174 172 185 188 183 193 224 201 194 207 192 201 146
175 182 163 188 170 177 175 181 150 177 177 180 169 146 133 151 149 183 181 179 177 192 152 192 157 190 191 152 167 195 195 173 187 172 192 184 206 181 219 190 186 226 183 199
173 146 167 189 182 188 179 170 156 182 191 181 162 147 178 165 194 189 142 150 174 189 177 172 181 141 160 169 185 162 184 181 200 189 174 217 183 174 169 193 211 217 202 192
176 191 201 181 190 186 169 188 170 179 176 170 185 182 180 167 185 178 153 178 176 182 168 182 155 185 176 195 171 189 176 186 191 195 198 198 223 195 168 184 202 174 170 202
167 166 189 162 177 160 181 184 183 166 181 169 194 165 171 167 175 176 177 145 178 146 142 155 162 193 191 170 145 181 192 198 162 162 177 202 181 164 189 178 175 192 196 188
163 176 170 170 189 166 164 151 135 165 140 178 168 149 149 173 177 177 162 164 180 173 182 162 161 163 165 169 169 155 163 148 156 159 194 150 153 183 187 186 211 181 178 189
162 165 178 182 180 168 193 179 169 161 156 139 167 165 199 158 134 171 169 174 165 154 148 160 196 202 174 190 190 196 139 178 163 195 203 175 148 182 161 203 201 208 200 204
217 175 200 199 164 175 177 167 148 170 169 163 173 174 187 172 173 156 172 169 186 188 205 173 205 211 204 176 172 171 193 158 186 200 154 206 159 203 203 207 205 192 190 193
217 161 226 175 172 178 189 199 183 191 188 206 201 183 184 181 205 171 222 178 167 175 188 175 188 178 160 197 206 197 137 193 167 182 202 179 208 191 193 159 197 158 208 208
210 221 223 224 221 220 223 217 205 220 198 199 198 207 207 200 209 208 214 224 201 193 174 182 163 190 180 189 180 176 158 205 192 182 207 186 198 184 209 210 171 211 210 215
202 218 212 196 215 215 187 216 213 214 224 222 217 241 181 221 223 203 208 209 194 224 225 136 212 189 174 184 193 84 160 185 189 167 184 212 117 199 210 220 204 200 218 153
229 208 227 226 196 202 216 227 237 229 236 205 275 258 246 228 250 261 222 185 224 229 230 227 186 231 207 204 194 172 115 207 211 188 180 191 128 159 213 213 214 221 165 90
213 235 241 211 227 246 244 236 226 207 260 256 262 250 219 225 222 246 264 253 240 223 238 229 237 231 229 243 190 226 222 147 222 189 229 79 93 223 229 219 201 238 232 185
255 227 249 245 249 241 245 270 291 274 262 247 242 260 247 135 235 151 96 254 211 134 70 161 237 217 248 234 231 217 242 222 227 194 226 108 237 200 230 242 208 216 240 251
273 277 250 297 258 232 255 317 303 261 275 320 237 231 243 306 253 125 112 69 245 227 251 263 231 100 201 99 224 230 244 244 236 237 239 195 215 250 245 220 237 103 231 234
241 285 237 246 274 247 237 282 259 251 267 304 297 284 242 263 325 279 96 248 264 293 265 144 212 314 228 205 228 185 156 226 101 84 234 96 103 238 269 224 252 243 244 227
232 270 263 238 234 297 271 268 296 298 242 284 191 278 302 288 293 295 278 246 261 257 224 232 330 303 257 212 297 261 219 192 331 93 269 95 89 156 296 280 288 298 301 333
284 254 233 277 273 266 276 298 298 293 284 300 270 201 269 295 267 263 272 297 83 220 323 383 283 297 344 270 313 308 279 290 271 255 146 92 92 319 176 281 295 296 280 320
296 308 297 305 288 286 298 294 299 282 305 290 301 302 304 308 308 299 305 282 306 283 282 283 295 280 294 299 287 311 319 278 335 333 104 300 283 107 317 274 318 322 320 314
306 306 308 306 303 300 287 295 293 287 295 293 303 297 293 282 272 277 271 303 309 308 293 289 278 301 285 308 310 304 300 302 290 294 300 249 309 311 316 289 299 300 293 282
334 323 343 307 313 311 313 312 309 317 309 310 303 300 300 301 300 299 292 296 298 290 287 283 294 296 287 293 298 302 308 302 296 300 297 299 299 288 278 292 304 306 304 320
378 356 382 394 390 377 381 342 340 345 356 358 353 340 326 325 332 329 325 316 310 301 307 299 309 313 311 302 313 308 308 318 308 310 318 312 308 283 306 299 303 158 359 359

GFSNW_2pvu_pres_150.txt.gz
Presure
160 155 161 174 170 164 172 170 168 172 165 151 150 149 186 164 187 166 182 183 171 183 203 203 199 217 230 227 234 242 340 321 305 299 293 290 286 290 284 281 261 235 226 227
166 138 178 198 165 178 189 182 157 148 159 159 176 183 177 147 196 186 190 179 174 189 174 203 171 173 190 201 216 225 234 219 226 233 240 248 247 250 325 339 342 377 327 333
178 173 178 182 186 168 177 180 176 141 186 171 168 179 132 184 180 184 156 150 182 185 194 197 193 195 180 167 171 210 205 204 222 218 215 220 220 220 227 218 231 227 227 228
179 182 162 174 170 179 174 184 176 183 178 155 187 146 190 157 138 162 189 181 175 174 190 162 166 174 196 187 161 182 168 173 199 196 214 232 214 209 220 227 221 208 235 223
125 185 184 185 201 175 169 183 160 180 187 143 171 176 151 169 175 172 128 175 199 172 186 158 148 152 175 182 176 208 166 154 179 175 196 194 187 214 205 172 223 212 213 205
168 168 170 184 178 205 187 181 177 171 169 173 186 155 138 170 192 174 183 136 166 167 198 164 185 155 198 159 172 205 207 187 183 177 183 187 218 169 211 196 182 197 191 220
186 171 182 165 193 176 190 179 183 157 185 173 171 183 178 146 161 186 154 180 154 186 154 188 177 187 141 180 183 163 151 148 188 168 174 171 176 172 168 192 178 199 219 200
193 193 182 195 186 179 175 195 195 176 173 175 151 184 175 180 170 151 170 197 163 179 162 186 156 148 196 172 160 175 199 182 190 189 186 196 178 198 210 179 211 171 208 211
175 178 176 191 156 174 207 161 165 168 198 150 171 148 198 194 173 148 149 163 182 167 153 170 166 185 186 158 161 193 189 192 200 173 196 185 169 193 180 201 180 178 176 213
193 189 198 181 182 173 176 189 184 186 187 192 162 174 169 180 171 165 172 171 167 183 169 178 153 151 155 183 173 193 162 200 163 157 202 179 173 192 197 188 182 182 191 198
185 177 167 170 203 176 174 175 172 171 179 164 169 153 175 153 176 161 161 187 175 168 141 143 187 192 155 155 202 156 154 134 176 216 166 164 210 192 149 178 209 173 174 206
186 180 201 194 195 181 203 135 169 162 185 165 177 184 182 181 174 178 178 147 139 176 194 202 148 157 164 189 136 154 179 175 197 155 186 197 159 149 194 199 151 149 181 180
196 187 192 194 210 207 196 178 196 189 206 184 174 170 182 171 198 194 194 159 204 198 142 186 210 219 160 201 142 153 143 187 160 144 198 198 207 192 159 153 173 153 200 203
198 183 197 203 204 205 188 190 197 202 216 216 192 207 208 206 178 171 197 191 159 169 211 220 168 172 163 178 187 215 170 150 221 176 178 185 156 199 188 192 174 172 180 198
187 202 196 202 191 205 211 208 205 226 205 201 211 203 213 223 225 220 216 212 227 229 225 225 220 226 215 245 224 182 142 178 185 159 218 205 207 195 167 197 190 191 170 184
202 181 159 195 233 194 220 244 195 209 243 230 224 199 198 205 226 213 215 206 213 222 222 221 241 206 203 257 271 211 227 221 229 222 222 222 216 218 202 205 213 221 226 203
181 169 238 170 238 232 234 227 237 209 212 220 211 227 226 255 247 229 215 237 215 217 264 254 225 273 238 254 260 222 217 125 237 233 233 232 227 234 211 93 220 203 172 207
217 217 232 225 195 225 240 221 215 245 246 216 239 250 163 254 246 266 255 248 250 256 288 289 199 255 284 164 109 85 84 121 250 256 244 238 236 232 232 230 241 234 192 240
228 205 214 206 243 236 249 228 209 268 244 281 286 248 272 212 295 264 246 265 285 253 305 264 165 288 254 187 293 299 227 269 243 245 259 256 250 244 243 211 239 229 240 227
251 244 244 240 242 227 251 246 276 262 261 290 265 308 253 260 293 261 261 283 253 284 277 282 307 333 234 99 286 287 250 249 249 259 256 294 241 254 258 257 246 240 235 236
239 231 250 241 251 245 253 238 249 243 257 246 254 288 292 275 275 263 235 281 281 244 298 295 279 156 93 82 91 320 313 273 247 313 319 283 301 301 257 245 203 293 104 239
268 273 245 256 260 231 226 258 228 273 261 246 286 246 295 271 274 288 297 279 301 299 286 295 206 266 147 85 292 293 295 289 279 275 279 287 216 87 192 297 94 98 142 255
237 235 242 246 266 245 289 287 259 240 284 273 276 287 301 233 266 289 286 315 302 309 309 311 272 286 276 273 222 280 274 269 286 298 289 244 295 319 191 94 91 229 177 293
295 304 280 235 244 239 295 296 304 306 304 304 300 300 299 295 308 296 302 300 308 315 316 296 298 286 301 307 299 300 287 306 308 294 299 287 284 282 295 289 291 299 298 292
273 273 314 318 310 305 307 303 300 305 304 307 307 306 307 310 311 315 315 314 314 307 300 289 303 303 304 298 296 283 281 291 283 299 299 309 299 300 283 284 294 294 306 309
338 328 323 312 314 316 321 320 322 320 319 321 316 323 331 319 332 331 326 322 318 320 310 322 318 324 322 314 313 314 312 306 299 307 310 301 299 296 291 301 298 288 292 288
346 339 334 333 341 345 346 340 341 336 332 336 340 373 370 343 419 410 385 342 343 348 350 353 370 370 366 354 342 362 359 358 281 324 332 196 82 339 344 350 337 341 349 346

GFSNW_2pvu_pres_153.txt.gz
Presure
129 183 180 188 157 182 190 179 189 157 181 154 189 187 193 189 199 208 156 191 191 214 217 186 213 194 213 216 237 220 268 301 296 283 277 271 257 244 219 214 217 212 206 209
171 182 181 162 181 176 179 172 182 169 144 188 138 162 175 186 144 202 193 192 162 199 217 187 192 194 184 187 200 206 206 223 221 226 245 240 296 309 307 321 318 315 314 280
181 184 179 173 170 185 181 187 184 184 169 164 181 140 152 164 179 195 186 156 184 173 206 179 181 179 213 181 185 183 196 198 207 211 215 208 214 228 222 246 238 235 235 235
108 180 168 176 179 168 162 173 182 176 166 187 175 164 180 185 140 172 179 161 172 165 165 180 189 160 166 201 213 193 182 179 170 191 199 194 189 205 222 214 232 204 210 210
170 160 154 198 186 202 178 193 195 191 178 210 166 180 192 177 160 144 167 191 150 193 179 182 181 200 187 142 203 173 191 214 183 191 212 172 192 200 202 191 204 206 204 213
144 158 181 184 197 189 187 200 170 176 185 208 194 174 154 165 167 165 155 155 150 162 158 161 167 135 134 191 195 162 161 181 185 191 180 174 176 199 175 201 171 196 181 189
179 127 143 202 141 177 166 176 201 194 166 177 188 168 165 204 171 188 146 170 154 171 181 198 134 180 138 160 170 140 168 167 176 186 179 193 186 181 168 166 186 181 173 182
161 173 159 167 185 195 199 202 194 181 180 194 185 145 184 189 148 212 182 164 140 163 152 169 169 186 172 160 151 148 216 147 153 162 190 157 209 193 193 213 219 192 187 184
173 162 190 161 194 186 182 189 177 179 190 157 177 179 180 168 174 146 189 179 184 136 174 149 193 147 160 142 171 191 175 164 183 170 194 186 207 184 183 172 158 160 189 202
184 192 165 195 193 162 183 181 196 198 198 189 204 197 195 190 185 174 175 136 169 186 160 155 137 177 152 162 172 156 152 196 176 168 190 177 174 144 154 186 190 153 159 192
182 182 190 173 180 198 187 200 169 191 162 190 180 186 195 178 189 187 195 181 161 194 159 173 187 173 156 175 144 158 184 167 153 158 212 179 169 173 164 163 187 137 190 158
192 194 183 197 169 205 187 196 200 199 203 196 191 169 199 201 198 216 198 190 192 196 176 211 166 138 215 205 200 166 198 200 154 181 141 143 168 152 191 168 178 158 179 188
190 199 194 193 198 202 209 179 191 195 201 191 205 199 192 197 206 198 207 156 150 194 208 190 189 210 206 222 218 210 187 199 175 211 206 161 232 160 159 224 170 219 166 167
201 194 195 198 174 202 203 208 213 200 196 206 195 200 199 198 198 205 198 204 211 213 213 152 134 221 219 216 211 217 208 182 224 215 122 215 195 159 214 244 236 161 165 175
199 209 200 196 206 214 210 206 209 213 215 210 170 207 200 189 203 208 200 207 215 187 204 234 218 207 215 221 238 199 143 164 209 221 169 218 97 251 253 242 230 246 209 181
153 210 161 202 216 201 186 217 130 214 214 216 190 160 203 193 200 212 207 203 204 253 226 229 302 270 240 290 285 237 220 253 135 112 248 266 258 112 247 252 249 248 253 230
231 229 183 219 225 216 206 208 209 212 232 237 248 225 160 184 212 233 236 234 237 237 250 217 222 285 282 268 243 264 98 241 205 219 249 261 275 255 209 168 247 249 214 208
237 210 220 245 249 226 227 215 232 224 222 227 231 158 149 222 222 200 232 264 258 260 280 320 261 272 292 218 79 180 267 207 296 286 252 132 181 258 277 257 253 255 261 246
245 200 202 255 257 224 213 237 191 208 231 221 223 224 240 226 229 220 210 213 236 285 257 253 269 247 259 288 276 117 249 279 279 249 252 260 315 300 301 266 252 254 298 252
184 300 209 176 252 213 180 186 197 222 210 246 244 218 214 210 248 217 255 317 270 248 250 240 296 286 292 295 239 293 149 161 123 91 239 283 275 258 304 305 277 276 301 300
224 191 259 256 217 181 197 225 243 212 199 206 276 271 272 216 259 280 261 243 253 242 275 277 273 253 135 292 283 272 234 82 95 232 88 96 293 290 284 290 315 292 279 277
249 203 203 187 207 239 262 285 263 263 272 249 261 279 261 249 252 238 229 265 279 238 258 299 188 280 279 164 107 87 84 278 258 281 280 291 288 285 288 290 287 195 148 85
238 220 255 283 269 229 242 263 249 264 232 262 236 235 242 271 267 267 258 255 263 306 307 307 301 269 273 292 283 291 295 302 79 307 299 285 286 295 293 292 290 290 293 291
237 220 248 236 244 229 284 244 242 234 243 244 276 244 254 316 320 320 319 320 318 320 307 298 285 304 311 308 307 301 296 297 299 303 301 303 307 105 292 297 292 301 307 308
246 247 248 249 249 252 256 250 260 262 265 324 320 322 325 325 323 325 327 318 313 308 313 315 320 319 318 318 316 314 318 316 315 309 307 303 302 295 299 300 304 302 299 302
330 328 332 326 333 316 327 327 334 328 343 347 338 338 343 336 342 348 336 336 336 334 328 330 336 345 349 350 341 392 392 398 390 380 350 341 336 333 344 320 322 324 316 330
355 349 324 349 357 331 334 338 346 349 345 338 341 345 342 341 335 339 330 353 334 357 363 361 362 370 372 371 373 374 378 381 386 394 401 415 423 435 449 445 449 464 463 491

GFSNW_2pvu_pres_156.txt.gz
Presure
164 171 189 183 180 185 189 175 185 184 184 190 195 194 143 178 191 144 189 205 196 211 202 206 197 196 208 213 225 218 240 272 306 284 159 252 253 321 322 323 313 316 312 174
175 189 110 151 180 182 173 184 185 174 178 183 187 163 152 189 188 172 209 159 189 204 214 178 208 198 194 191 199 213 208 214 213 224 237 242 274 313 321 332 328 323 327 305
160 141 172 110 169 164 162 181 193 186 198 190 184 179 181 171 171 152 181 178 192 200 170 193 172 165 214 196 215 201 196 195 202 207 211 207 207 209 221 220 217 228 235 246
147 194 172 164 170 161 177 165 191 169 171 186 191 202 182 182 182 165 141 172 175 151 138 206 157 168 185 193 195 182 176 189 192 187 189 194 192 193 198 201 197 200 203 227
183 136 178 162 133 173 181 178 205 197 197 187 186 192 195 182 215 190 202 142 140 205 130 168 161 201 168 153 172 142 185 191 206 194 177 174 196 195 198 192 204 198 203 199
192 177 183 168 188 170 163 170 184 167 171 199 188 153 176 175 187 196 142 185 173 187 141 181 179 169 171 149 152 167 195 158 184 149 190 198 192 179 181 176 191 182 181 196
170 181 174 186 166 177 179 176 175 196 203 200 191 183 176 180 178 173 164 181 163 173 181 191 148 143 123 168 172 127 193 176 193 148 144 173 159 178 172 181 177 199 190 223
179 146 155 176 175 167 193 189 187 188 149 186 181 213 205 184 196 159 182 194 157 187 183 173 186 131 154 142 148 165 140 175 159 177 132 157 186 169 207 172 145 178 202 148
181 159 184 190 161 191 170 164 161 191 212 206 198 202 203 163 203 164 192 193 185 149 189 185 165 175 194 146 176 166 150 125 168 158 185 180 166 163 179 145 193 161 199 174
194 185 167 186 180 181 178 198 181 179 165 186 193 167 184 190 201 202 204 203 181 185 182 181 166 195 177 182 193 167 202 145 198 174 185 146 144 154 157 159 180 176 152 201
199 199 188 163 184 171 183 201 200 167 189 179 186 201 197 179 198 162 202 190 202 198 202 200 198 205 212 197 155 168 191 147 163 174 214 198 216 205 199 200 168 185 171 156
207 174 198 205 168 201 186 188 188 191 194 160 193 189 184 194 198 186 199 204 191 206 200 199 207 196 182 202 187 195 199 231 209 140 140 179 219 217 208 178 224 158 149 179
207 161 199 192 201 179 204 168 208 161 189 186 184 187 193 192 191 194 202 185 200 205 210 211 214 209 146 208 173 203 198 198 203 202 215 253 232 238 253 209 230 211 188 212
195 202 208 208 198 191 178 200 203 203 205 202 207 196 193 192 202 200 211 213 207 194 207 211 214 209 173 209 167 183 175 219 214 237 251 217 190 234 242 254 171 248 238 248
204 230 165 219 173 192 200 190 198 230 207 231 231 187 200 200 198 202 202 182 215 222 215 221 218 217 199 210 236 162 127 225 226 255 252 300 293 278 271 273 285 268 246 256
186 219 226 204 203 206 207 199 196 196 209 210 242 257 127 188 192 206 205 206 215 220 219 221 222 219 243 240 131 234 222 226 234 219 219 295 286 280 211 252 271 247 293 257
225 226 228 195 220 228 217 233 177 226 179 221 242 242 219 224 210 228 234 246 259 240 232 223 233 227 237 232 232 100 260 314 320 259 102 254 268 248 334 254 256 328 282 263
217 181 230 210 229 168 218 192 204 165 200 221 189 198 242 220 231 229 215 224 289 243 245 229 221 231 225 274 277 227 87 91 173 257 195 245 234 292 316 325 289 292 253 248
205 222 213 221 206 233 158 219 199 177 229 202 223 207 207 185 212 215 203 212 203 265 102 261 277 294 131 215 222 228 230 229 252 286 270 246 287 267 143 224 290 227 289 287
213 216 204 193 222 220 219 203 230 209 198 212 227 179 245 236 238 262 222 269 237 276 228 217 279 265 246 78 282 254 269 245 295 294 277 244 92 98 86 97 94 286 281 284
189 193 222 206 190 217 229 209 202 227 177 217 190 199 247 255 228 194 199 268 250 214 262 265 280 240 254 225 239 250 232 257 255 145 209 86 89 155 141 282 280 275 296 294
202 223 215 205 230 195 203 225 198 220 244 234 202 252 263 292 241 239 236 248 227 250 248 245 246 277 247 246 244 230 291 212 178 209 299 297 294 296 297 295 296 295 293 288
227 235 223 231 240 263 216 229 227 249 246 302 250 247 254 257 216 229 235 305 289 269 247 242 249 261 82 313 314 82 314 311 271 307 303 302 306 303 307 304 303 303 305 304
240 253 259 267 238 246 254 233 251 276 243 254 278 291 285 289 298 288 251 258 260 259 315 323 322 325 334 229 329 327 324 318 313 310 309 311 313 313 312 313 313 314 313 164
272 253 289 288 285 299 272 288 300 303 306 301 298 304 306 289 281 312 314 342 339 334 332 334 349 358 354 350 347 350 355 351 349 367 351 346 339 335 331 332 335 338 345 349
334 367 339 341 319 323 319 322 336 314 320 322 311 314 318 322 327 329 340 343 346 349 345 345 344 339 345 347 348 357 368 370 373 375 376 375 377 378 380 380 379 387 394 408
364 333 343 353 339 341 347 354 340 337 344 347 333 316 346 352 350 352 348 344 337 333 332 330 351 367 376 374 370 368 362 366 373 372 372 368 367 375 376 372 370 370 371 371